Weather Service Report


470 
ASUS44 KSJT 301410
RWRSJT
WEST CENTRAL TEXAS REGIONAL WEATHER ROUNDUP
NATIONAL WEATHER SERVICE SAN ANGELO TX
900 AM CDT MON MAR 30 2015

NOTE: "FAIR" INDICATES FEW OR NO CLOUDS BELOW 12,000 FEET WITH NO
SIGNIFICANT WEATHER AND/OR OBSTRUCTIONS TO VISIBILITY.

TXZ049-054-064>066-071>073-076>078-098-099-113-114-127-128-139-140-
154-155-168>170-301500
...LOCATIONS ACROSS WEST CENTRAL TEXAS...
  
CITY           SKY/WX    TMP DP  RH WIND       PRES   REMARKS
SAN ANGELO     PTSUNNY   62  47  57 NE7       30.17R                  
ABILENE        PTSUNNY   55  46  71 NW3       30.19R                  
DYESS AFB      PTSUNNY   54  46  74 NW6       30.18R                  
JUNCTION       CLOUDY    60  56  86 CALM      30.17R                  
SWEETWATER     MOSUNNY   55  43  63 N5        30.24R                  
BROWNWOOD      PTSUNNY   59  50  72 NW6       30.16R                  
COLEMAN        MOSUNNY   59  49  69 N5        30.17R                  
SONORA         CLOUDY    61  52  72 CALM      30.22R                  
OZONA          FAIR      57  46  67 CALM      30.21R                  
BRADY          SUNNY     63  50  63 NW3       30.16R                  
$$

TEXAS PANHANDLE/OKLAHOMA PANHANDLE
  
CITY           SKY/WX    TMP DP  RH WIND       PRES   REMARKS
AMARILLO       MOSUNNY   51  31  46 S6        30.26S                  
BORGER         MOSUNNY   50  29  44 W5        30.24R                  
CANADIAN       MOSUNNY   42  37  80 CALM      30.22F                  
DALHART        PTSUNNY   52  28  39 SW9       30.22F                  
DUMAS          PTSUNNY   46  29  52 S7        30.23F                  
GUYMON         NOT AVBL                                               
HEREFORD       MOSUNNY   48  34  57 CALM      30.26S                  
PAMPA          PTSUNNY   56  32  40 SW6       30.24S                  
PERRYTON       SUNNY     50  34  55 SW8       30.21F                  
$$

SOUTHERN PANHANDLE/SOUTH PLAINS/ROLLING PLAINS
  
CITY           SKY/WX    TMP DP  RH WIND       PRES   REMARKS
LUBBOCK        PTSUNNY   48  31  51 CALM      30.24F                  
SNYDER         MOSUNNY   53  41  62 NE8       30.22S                  
CHILDRESS      SUNNY     51  31  46 N7        30.25R                  
SEMINOLE       CLOUDY    53  37  55 CALM      30.26R                  
$$

PERMIAN BASIN
  
CITY           SKY/WX    TMP DP  RH WIND       PRES   REMARKS
MIDLAND        CLOUDY    55  42  61 N8        30.22R                  
ODESSA         CLOUDY    54  40  59 NE12      30.23R                  
WINK           CLOUDY    55  39  54 N6        30.21R                  
$$

FAR WEST/SOUTHWEST MOUNTAINS/TRANS PECOS
  
CITY           SKY/WX    TMP DP  RH WIND       PRES   REMARKS
ALPINE         MOSUNNY   52  44  74 CALM      30.31R                  
DRYDEN           N/A     65  60  84 NE6       30.16R                  
EL PASO        CLOUDY    62  35  36 S6        30.18S                  
FORT STOCKTON  MOSUNNY   54  45  71 SW7       30.22R                  
GUADALUPE PASS PTSUNNY   54  35  48 NE29      30.26S                  
MARFA          MOSUNNY   50  41  71 NW6       30.26R                  
PECOS          MOSUNNY   55  40  57 N6        30.22R                  
$$

DALLAS/FORT WORTH METROPLEX
  
CITY           SKY/WX    TMP DP  RH WIND       PRES   REMARKS
DFW AIRPORT    PTSUNNY   65  60  84 SE7       30.15R                  
FTW MEACHAM    PTSUNNY   64  58  80 E6        30.14S                  
DAL-EXECUTIVE  CLOUDY    64  60  87 E6        30.15R                  
GRAND PRAIRIE  CLOUDY    64  61  88 E6        30.16S                  
ADDISON        CLOUDY    66  59  77 SE7       30.16R                  
MESQUITE       CLOUDY    64  61  88 E5        30.17R                  
LANCASTER      CLOUDY    63  60  91 E3        30.17S                  
$$

NORTH CENTRAL TEXAS
  
CITY           SKY/WX    TMP DP  RH WIND       PRES   REMARKS
SHRMAN/DENISON SUNNY     63  49  60 E8        30.18F                  
GAINESVILLE    MOSUNNY   59  46  60 NE6       30.19S                  
BRIDGEPORT     PTSUNNY   59  49  70 E3        30.18S                  
DENTON         MOSUNNY   61  50  67 NE8       30.16R                  
WAXAHACHIE     CLOUDY    63  63  99 E3        30.17R                  
GRANBURY         N/A     61  57  89 CALM      30.16R                  
$$

WESTERN NORTH TEXAS
  
CITY           SKY/WX    TMP DP  RH WIND       PRES   REMARKS
WICHITA FALLS  MOSUNNY   52  45  77 NW9       30.18R                  
VERNON         SUNNY     50  38  63 NE8       30.21S                  
BRECKENRIDGE   CLOUDY    59  47  65 CALM      30.17R                  
COMANCHE       CLOUDY    58  52  78 NW6       30.16R                  
$$

CENTRAL AND SOUTH CENTRAL TEXAS
  
CITY           SKY/WX    TMP DP  RH WIND       PRES   REMARKS
AUSTIN/BERGSTM CLOUDY    65  63  93 S5        30.16S                  
WACO           SUNNY     66  62  87 S10       30.14R                  
HILLSBORO      SUNNY     65  62  90 S7        30.14S                  
TEMPLE         CLOUDY    66  57  72 S10       30.15R                  
KILLEEN-GRAY   CLOUDY    66  62  87 S8        30.15R                  
FORT HOOD      CLOUDY    66  62  85 S12       30.14R                  
GEORGETOWN     CLOUDY    66  61  82 S9        30.15R                  
LAGO VISTA     CLOUDY    66  61  84 SW8       30.17R                  
SAN MARCOS     CLOUDY    64  61  88 CALM      30.18R                  
NEW BRAUNFELS  CLOUDY    67  63  87 E5        30.15R                  
RANDOLPH AFB   CLOUDY    66  65  95 E2        30.16R                  
SAN ANTONIO    CLOUDY    68  63  84 S7        30.17R                  
STINSON        CLOUDY    68  63  84 CALM      30.15R                  
PLEASANTON     NOT AVBL                                               
LA GRANGE      PTSUNNY   69  67  94 S3        30.16R                  
GIDDINGS       PTSUNNY   66  64  96 S3        30.21R                  
$$

EAST TEXAS
  
CITY           SKY/WX    TMP DP  RH WIND       PRES   REMARKS
PARIS          NOT AVBL                                               
CLARKSVILLE    NOT AVBL                                               
TYLER          CLOUDY    66  61  84 SE7       30.18R                  
LONGVIEW       CLOUDY    67  61  81 S6        30.18S                  
PALESTINE      CLOUDY    67  63  88 S7        30.19R                  
NACOGDOCHES    CLOUDY    64  61  88 SE3       30.21R                  
$$

TEXAS HILL COUNTRY AND EDWARDS PLATEAU
  
CITY           SKY/WX    TMP DP  RH WIND       PRES   REMARKS
LLANO          CLOUDY    64  63  94 CALM      30.19R                  
HORSESHOE BAY  CLOUDY    66  62  85 CALM      30.16S                  
KERRVILLE      CLOUDY    61  60  96 SE7       30.18R FOG              
FREDERICKSBRG  CLOUDY    62  60  92 S5        30.17S                  
ROCKSPRINGS    NOT AVBL                                               
HONDO          CLOUDY    65  62  90 MISG      30.18R                  
UVALDE         CLOUDY    64  62  93 E5        30.16R                  
DEL RIO        CLOUDY    66  61  84 E7        30.13R                  
$$

SOUTHEAST TEXAS
  
CITY           SKY/WX    TMP DP  RH WIND       PRES   REMARKS
COLLEGE STN    CLOUDY    65  64  97 SE7       30.18S FOG              
CALDWELL       PTSUNNY   64  64 100 SE7       30.20S                  
CROCKETT       SUNNY     68  66  94 S7        30.21F                  
BRENHAM        CLOUDY    67  66  97 S3        30.20R FOG              
HUNTSVILLE     MOSUNNY   67  64  90 S8        30.19R                  
CONROE         MOSUNNY   66  63  90 MISG      30.20S                  
HOUSTON BUSH   PTSUNNY   67  65  93 CALM      30.20R                  
HOUSTON HOBBY  MOSUNNY   68  65  90 CALM      30.20R                  
PERLAND        SUNNY     68  65  90 SE3       30.22R                  
WHARTON        PTSUNNY   66  65  98 SE3       30.20R                  
$$

THE UPPER TEXAS COAST
  
CITY           SKY/WX    TMP DP  RH WIND       PRES   REMARKS
ORANGE         MOSUNNY   66  64  93 CALM      30.24R                  
PORT ARTHUR    SUNNY     69  67  93 CALM      30.21S                  
GALVESTON      MOSUNNY   70  66  87 SE3       30.22R                  
ANGLETON       SUNNY     65  65 100 E3        30.20R                  
BAY CITY       MOSUNNY   66  66 100 CALM      30.19R                  
$$

TEXAS COASTAL BEND, RIO GRANDE PLAINS DEEP SOUTH TEXAS
  
CITY           SKY/WX    TMP DP  RH WIND       PRES   REMARKS
VICTORIA       CLOUDY    69  67  93 SE6       30.17R                  
BEEVILLE       CLOUDY    68  68 100 SE9       30.14S                  
ROCKPORT       PTSUNNY   71  66  84 SE9       30.15R                  
PORT ARANSAS   PTSUNNY   68  66  93 SE8       30.15S                  
PORT LAVACA    NOT AVBL                                               
CORPUS CHRISTI CLOUDY    69  67  93 S12       30.14R                  
KINGSVILLE NAS CLOUDY    71  69  93 SE7       30.14R                  
COTULLA        MOSUNNY   69  63  81 SE9       30.12R                  
LAREDO         PTSUNNY   67  64  90 SE10      30.12R                  
BROWNSVILLE    PTSUNNY   72  69  90 SE14      30.13R                  
PORT ISABEL    SUNNY     72  68  87 S12       30.13R FOG              
HEBBRONVILLE   NOT AVBL                                               
MCALLEN        CLOUDY    72  67  84 SE14      30.11S                  
WESLACO        CLOUDY    71  67  85 S16       30.11S                  
FALFURRIAS     CLOUDY    68  65  90 E5        30.13R                  
EDINBURG       CLOUDY    73  67  80 SE10G17   30.12R                  
$$

Return to Home page


Western Regional Climate Center, wrcc@dri.edu